| time (UTC) | temp C | wind direction | speed KPH | gust KPH | rain 1hr cm | rain 24hr cm | rain mn cm | humidity % | barometer mb |
| 20260507193034 | 16 | 270 | 9.7 | 29.0 | 0.00 | 1.09 | 0.00 | 32 | 1018.7 |
| 20260507191525 | 16 | 210 | 16.1 | 22.5 | 0.00 | 1.09 | 0.00 | 35 | 1019.0 |
| 20260507190022 | 15 | 323 | 12.9 | 24.1 | 0.00 | 1.09 | 0.00 | 35 | 1019.4 |
| 20260507184519 | 15 | 207 | 14.5 | 27.4 | 0.00 | 1.40 | 0.00 | 36 | 1019.8 |
| 20260507183034 | 15 | 277 | 12.9 | 27.4 | 0.00 | 1.40 | 0.00 | 36 | 1020.0 |
| 20260507181513 | 14 | 265 | 17.7 | 25.7 | 0.00 | 1.40 | 0.00 | 37 | 1020.1 |
| 20260507180011 | 13 | 270 | 11.3 | 20.9 | 0.00 | 1.40 | 0.00 | 40 | 1020.5 |
| 20260507174512 | 13 | 241 | 9.7 | 16.1 | 0.00 | 1.63 | 0.00 | 39 | 1020.5 |
| 20260507173008 | 13 | 241 | 9.7 | 22.5 | 0.00 | 1.63 | 0.00 | 39 | 1020.7 |
| 20260507171503 | 13 | 243 | 19.3 | 25.7 | 0.00 | 1.63 | 0.00 | 39 | 1021.1 |
| 20260507170000 | 12 | 257 | 9.7 | 20.9 | 0.00 | 1.63 | 0.00 | 39 | 1021.5 |
| 20260507164603 | 13 | 242 | 14.5 | 24.1 | 0.00 | 1.63 | 0.00 | 38 | 1021.7 |
| 20260507163100 | 12 | 236 | 14.5 | 22.5 | 0.00 | 1.63 | 0.00 | 39 | 1021.9 |
| 20260507161554 | 11 | 246 | 14.5 | 24.1 | 0.00 | 1.63 | 0.00 | 41 | 1022.1 |
| 20260507160053 | 11 | 260 | 11.3 | 20.9 | 0.00 | 1.63 | 0.00 | 43 | 1022.2 |
| 20260507154545 | 10 | 244 | 9.7 | 20.9 | 0.00 | 1.63 | 0.00 | 43 | 1022.4 |
| 20260507153045 | 10 | 262 | 9.7 | 19.3 | 0.00 | 1.63 | 0.00 | 44 | 1022.7 |
| 20260507151538 | 9 | 257 | 8.0 | 14.5 | 0.00 | 1.63 | 0.00 | 46 | 1022.7 |
| 20260507150035 | 8 | 219 | 6.4 | 17.7 | 0.00 | 1.63 | 0.00 | 46 | 1022.7 |
| 20260507144535 | 7 | 224 | 11.3 | 22.5 | 0.00 | 1.63 | 0.00 | 48 | 1022.8 |
| 20260507143027 | 7 | 252 | 11.3 | 17.7 | 0.00 | 1.63 | 0.00 | 47 | 1022.9 |
| 20260507141524 | 6 | 250 | 9.7 | 19.3 | 0.00 | 1.63 | 0.00 | 49 | 1023.0 |
| 20260507140021 | 6 | 253 | 11.3 | 19.3 | 0.00 | 1.63 | 0.00 | 49 | 1023.3 |
| 20260507134517 | 5 | 244 | 9.7 | 16.1 | 0.00 | 1.63 | 0.00 | 50 | 1023.3 |
| 20260507133014 | 5 | 229 | 3.2 | 11.3 | 0.00 | 1.63 | 0.00 | 51 | 1023.2 |
| 20260507131509 | 3 | 262 | 9.7 | 14.5 | 0.00 | 1.63 | 0.00 | 52 | 1023.2 |
| 20260507130020 | 3 | 244 | 4.8 | 12.9 | 0.00 | 1.63 | 0.00 | 53 | 1023.4 |
| 20260507124505 | 3 | 244 | 9.7 | 19.3 | 0.00 | 1.63 | 0.00 | 53 | 1023.0 |
| 20260507123002 | 2 | 256 | 9.7 | 17.7 | 0.00 | 1.63 | 0.00 | 54 | 1022.7 |
| 20260507121502 | 2 | 252 | 12.9 | 20.9 | 0.00 | 1.63 | 0.00 | 54 | 1022.6 |
| 20260507120059 | 2 | 238 | 12.9 | 20.9 | 0.00 | 1.63 | 0.00 | 55 | 1022.6 |
| 20260507114613 | 2 | 240 | 11.3 | 19.3 | 0.00 | 1.63 | 0.00 | 56 | 1022.7 |
| 20260507113058 | 2 | 249 | 14.5 | 20.9 | 0.00 | 1.63 | 0.00 | 56 | 1022.8 |
| 20260507111557 | 2 | 249 | 9.7 | 20.9 | 0.00 | 1.63 | 0.00 | 55 | 1022.7 |
| 20260507110057 | 2 | 236 | 12.9 | 17.7 | 0.00 | 1.63 | 0.00 | 55 | 1022.7 |
| 20260507104557 | 2 | 250 | 12.9 | 19.3 | 0.00 | 1.63 | 0.00 | 55 | 1022.8 |
| 20260507103049 | 2 | 227 | 9.7 | 19.3 | 0.00 | 1.63 | 0.00 | 56 | 1022.8 |
| 20260507101548 | 1 | 245 | 8.0 | 19.3 | 0.00 | 1.63 | 0.00 | 57 | 1023.1 |
| 20260507100045 | 1 | 257 | 12.9 | 19.3 | 0.00 | 1.63 | 0.00 | 57 | 1023.3 |
| 20260507094543 | 1 | 240 | 12.9 | 20.9 | 0.00 | 1.63 | 0.00 | 57 | 1023.3 |
| 20260507093042 | 1 | 242 | 11.3 | 19.3 | 0.00 | 1.63 | 0.00 | 58 | 1023.5 |
| 20260507091542 | 1 | 239 | 12.9 | 20.9 | 0.00 | 1.63 | 0.00 | 60 | 1023.5 |
| 20260507090037 | 1 | 260 | 6.4 | 22.5 | 0.00 | 1.63 | 0.00 | 60 | 1023.4 |
| 20260507084535 | 1 | 252 | 9.7 | 19.3 | 0.00 | 1.63 | 0.00 | 59 | 1023.6 |
| 20260507083035 | 1 | 251 | 12.9 | 24.1 | 0.00 | 1.63 | 0.00 | 60 | 1023.6 |
| 20260507081531 | 1 | 247 | 12.9 | 20.9 | 0.00 | 1.63 | 0.00 | 63 | 1023.5 |
| 20260507080029 | 1 | 244 | 9.7 | 19.3 | 0.00 | 1.63 | 0.00 | 65 | 1023.7 |
| 20260507074528 | 1 | 252 | 11.3 | 19.3 | 0.00 | 1.63 | 0.00 | 67 | 1024.0 |
| 20260507073028 | 1 | 248 | 11.3 | 17.7 | 0.00 | 1.63 | 0.00 | 69 | 1024.2 |
| 20260507071522 | 1 | 251 | 8.0 | 16.1 | 0.00 | 1.63 | 0.00 | 69 | 1024.3 |
| 20260507070019 | 0 | 259 | 9.7 | 19.3 | 0.00 | 1.63 | 0.00 | 73 | 1024.3 |
| 20260507064515 | 0 | 245 | 8.0 | 17.7 | 0.00 | 1.63 | 0.00 | 77 | 1024.5 |
| 20260507063025 | 0 | 240 | 4.8 | 11.3 | 0.00 | 1.63 | 0.00 | 77 | 1024.7 |
| 20260507061510 | 0 | 236 | 4.8 | 9.7 | 0.00 | 1.63 | 0.00 | 78 | 1024.5 |
| 20260507060015 | 0 | 226 | 4.8 | 6.4 | 0.00 | 1.63 | 0.00 | 80 | 1024.8 |
| 20260507054505 | 0 | 232 | 6.4 | 11.3 | 0.00 | 1.63 | 1.63 | 81 | 1024.9 |
| 20260507053006 | 0 | 241 | 6.4 | 12.9 | 0.00 | 1.63 | 1.63 | 80 | 1024.7 |
| 20260507051505 | 0 | 237 | 6.4 | 11.3 | 0.00 | 1.63 | 1.63 | 80 | 1024.5 |
| 20260507050003 | 0 | 220 | 6.4 | 11.3 | 0.00 | 1.63 | 1.63 | 80 | 1024.4 |
| 20260507044502 | 0 | 234 | 6.4 | 11.3 | 0.00 | 1.63 | 1.63 | 81 | 1024.5 |
| 20260507043002 | 0 | 209 | 6.4 | 9.7 | 0.00 | 1.63 | 1.63 | 82 | 1024.4 |
| 20260507041502 | 0 | 235 | 8.0 | 12.9 | 0.00 | 1.63 | 1.63 | 82 | 1024.4 |
| 20260507040000 | 0 | 226 | 8.0 | 14.5 | 0.00 | 1.63 | 1.63 | 82 | 1024.2 |
| 20260507034611 | 0 | 211 | 8.0 | 14.5 | 0.00 | 1.63 | 1.63 | 82 | 1024.3 |
| 20260507033104 | 0 | 202 | 8.0 | 16.1 | 0.00 | 1.63 | 1.63 | 81 | 1024.1 |
| 20260507031618 | 0 | 217 | 9.7 | 16.1 | 0.00 | 1.63 | 1.63 | 81 | 1024.1 |
| 20260507030058 | 1 | 212 | 8.0 | 16.1 | 0.00 | 1.63 | 1.63 | 81 | 1023.9 |
| 20260507024557 | 1 | 192 | 6.4 | 14.5 | 0.00 | 1.63 | 1.63 | 81 | 1023.9 |
| 20260507023056 | 1 | 180 | 8.0 | 16.1 | 0.00 | 1.63 | 1.63 | 80 | 1023.8 |
| 20260507021556 | 1 | 173 | 4.8 | 9.7 | 0.00 | 1.63 | 1.63 | 80 | 1023.8 |
| 20260507020054 | 1 | 173 | 0.0 | 6.4 | 0.00 | 1.63 | 1.63 | 80 | 1023.9 |
| 20260507014557 | 1 | 157 | 3.2 | 9.7 | 0.00 | 1.63 | 1.63 | 78 | 1023.9 |
| 20260507013109 | 2 | 162 | 3.2 | 11.3 | 0.00 | 1.63 | 1.63 | 77 | 1023.8 |
| 20260507011553 | 2 | 110 | 1.6 | 4.8 | 0.00 | 1.63 | 1.63 | 77 | 1023.9 |
| 20260507004551 | 2 | 165 | 8.0 | 14.5 | 0.00 | 1.63 | 1.63 | 74 | 1024.0 |
| 20260507003049 | 2 | 173 | 3.2 | 16.1 | 0.00 | 1.63 | 1.63 | 75 | 1024.0 |
| 20260507001552 | 2 | 145 | 6.4 | 16.1 | 0.00 | 1.63 | 1.63 | 75 | 1024.0 |
| 20260507000047 | 2 | 107 | 4.8 | 16.1 | 0.00 | 1.63 | 1.63 | 77 | 1024.2 |
| 20260506234548 | 2 | 116 | 8.0 | 14.5 | 0.00 | 1.63 | 1.63 | 76 | 1024.0 |
| 20260506233100 | 2 | 115 | 8.0 | 12.9 | 0.03 | 1.63 | 1.63 | 76 | 1024.2 |
| 20260506231547 | 2 | 96 | 3.2 | 12.9 | 0.03 | 1.63 | 1.63 | 77 | 1024.4 |
| 20260506230048 | 1 | 80 | 1.6 | 12.9 | 0.05 | 1.63 | 1.63 | 77 | 1024.4 |
| 20260506224546 | 2 | 105 | 4.8 | 12.9 | 0.08 | 1.68 | 1.63 | 75 | 1024.3 |
| 20260506223041 | 2 | 216 | 3.2 | 8.0 | 0.08 | 1.65 | 1.60 | 78 | 1024.6 |
| 20260506221545 | 1 | 262 | 1.6 | 6.4 | 0.13 | 1.65 | 1.60 | 79 | 1024.9 |
| 20260506220042 | 1 | 228 | 1.6 | 4.8 | 0.13 | 1.63 | 1.57 | 78 | 1025.0 |
| 20260506214539 | 1 | 84 | 3.2 | 6.4 | 0.15 | 1.68 | 1.55 | 79 | 1025.1 |
| 20260506213040 | 1 | 343 | 0.0 | 4.8 | 0.23 | 1.65 | 1.52 | 77 | 1025.3 |
| 20260506211540 | 0 | 344 | 0.0 | 8.0 | 0.28 | 1.60 | 1.45 | 79 | 1025.4 |
| 20260506210039 | 1 | 265 | 3.2 | 9.7 | 0.38 | 1.57 | 1.42 | 78 | 1025.3 |
| 20260506204538 | 1 | 17 | 0.0 | 6.4 | 0.51 | 1.55 | 1.40 | 78 | 1025.4 |
| 20260506203037 | 1 | 328 | 1.6 | 8.0 | 0.53 | 1.42 | 1.30 | 80 | 1025.5 |
| 20260506201537 | 1 | 355 | 1.6 | 8.0 | 0.56 | 1.35 | 1.19 | 81 | 1025.7 |
| 20260506200041 | 1 | 5 | 4.8 | 12.9 | 0.51 | 1.19 | 1.04 | 83 | 1025.6 |
| 20260506194534 | 1 | 20 | 3.2 | 9.7 | 0.46 | 1.12 | 0.89 | 86 | 1025.5 |